Regional Weather Roundup
Issued by NWS

Home | Current Version | Previous Version | Text Only | Print | Product List | Glossary Off
Versions: 1 2 3 4 5 6 7 8 9 10 11 12 13 14 15 16 17 18 19 20 21 22 23 24 25 26 27 28 29 30 31 32 33 34 35 36 37 38 39 40 41 42 43 44 45 46 47 48 49 50

000
ASUS43 KLOT 300912
RWRIL

ILLINOIS REGIONAL WEATHER ROUNDUP
NATIONAL WEATHER SERVICE CHICAGO/ROMEOVILLE IL
400 AM CDT TUE JUN 30 2015

NOTE: "FAIR" INDICATES FEW OR NO CLOUDS BELOW 12,000 FEET WITH NO
SIGNIFICANT WEATHER AND/OR OBSTRUCTIONS TO VISIBILITY.

* THESE STATIONS ARE NOT UNDER NWS QUALITY CONTROL. THEY ALSO MAY NOT
  REPORT WEATHER SUCH AS PRECIPITATION OR FOG.

ILZ001-002-007-009-015-016-024-301000-
NORTHWEST ILLINOIS

CITY           SKY/WX    TMP DP  RH WIND       PRES   REMARKS
MOLINE         CLEAR     62  60  93 CALM      29.80F
STERLING*      CLEAR     63  61  94 W3        29.81R
SAVANNA*       CLEAR     62  60  92 NW3       29.81S
$$

ILZ003-004-008-010-011-017-018-301000-
NORTH CENTRAL ILLINOIS

CITY           SKY/WX    TMP DP  RH WIND       PRES   REMARKS
ROCKFORD       PTCLDY    61  58  90 W5        29.81S
FREEPORT*      CLEAR     58  58  99 W5        29.82S FOG
ROCHELLE*      MOCLDY    60  59  99 CALM      29.80F FOG
DE KALB*       MOCLDY    60  58  95 NW7       29.80S
PERU*          MOCLDY    63  61  95 CALM      29.81S FOG
$$

ILZ005-006-012>014-019>023-301000-
NORTHEAST ILLINOIS

CITY           SKY/WX    TMP DP  RH WIND       PRES   REMARKS
CHICAGO-OHARE  CLOUDY    65  63  93 W7        29.76S
CHICAGO-MIDWAY CLOUDY    66  64  93 W6        29.76F FOG
AURORA         MOCLDY    62  59  90 NW5       29.79S FOG
LANSING*       MOCLDY    63  61  92 CALM      29.77S
JOLIET*        MOCLDY    65  63  93 CALM      29.78F
WAUKEGAN       MOCLDY    61  60  97 W3        29.76S FOG
DUPAGE AIRPORT MOCLDY    63  61  93 W6        29.77S
KANKAKEE*      CLOUDY    64  63  95 CALM      29.79F
WHEELING       MOCLDY    65  61  87 NW8       29.77F
MORRIS*        MOCLDY    63  60  92 W7        29.76F
ROMEOVILLE*    MOCLDY    63  62  96 W5        29.78S
NORTHERLY ISL    N/A     66  63  90 W2          N/A
$$

LMZ740>746-301000-
SOUTHERN LAKE MICHIGAN

STATION/POSITION SKY/WX   TEMP    WIND        PRES    VSBY  WAVE
                          AIR SEA DIR/SP/G                  HT/PER
                          (F)     (DEG/KT/KT) (MB)    (MI)  (FT/S)
HARRISON CRIB              66     200/ 10/ 11   N/A
BURNHAM HARBOR             66     260/  5/  8   N/A
CALUMET HARBOR             65     210/  1/  2   N/A
BURNS HARBOR               65     180/  6/ 10 1008.8S
MICHIGAN CITY              63     140/  9/ 11   N/A
MICHIGAN CITY 6N           64 64  180/  4/  6   N/A           1
ST. JOSEPH                 62 63                N/A           1
$$

ILZ025>027-034>036-040-047-049-050-058-095>099-301000-
WEST-CENTRAL ILLINOIS

CITY           SKY/WX    TMP DP  RH WIND       PRES   REMARKS
QUINCY         CLEAR     66  64  93 SW6       29.86S
GALESBURG*     PTCLDY    63  62  97 CALM      29.83S FOG
MACOMB*        PTCLDY    65  65  99 W6        29.85S FOG
JACKSONVILLE*  PTCLDY    69  66  92 W3        29.85S
PITTSFIELD*    CLEAR     68  64  89 W5        29.87S
$$

ILZ028>032-037-038-041>044-048-051>054-059>061-301000-
CENTRAL ILLINOIS

CITY           SKY/WX    TMP DP  RH WIND       PRES   REMARKS
PONTIAC        LGT RAIN  66  65  97 W3        29.80F
BLOOMINGTON    MOCLDY    67  67 100 W5        29.83S
DECATUR        PTCLDY    68  65  90 W7        29.83S
PEORIA         MOCLDY    67  62  84 W3        29.82R
LACON*         MOCLDY    64  61  91 CALM      29.80S
LINCOLN*       MOCLDY    67  64  91 CALM      29.82F
SPRINGFIELD    CLEAR     69  65  86 W7        29.84S
TAYLORVILLE    CLEAR     66  64  94 W6        29.85R
$$

ILZ033-039-045-046-055>057-062-063-301000-
EAST-CENTRAL ILLINOIS

CITY           SKY/WX    TMP DP  RH WIND       PRES   REMARKS
CHAMPAIGN      MOCLDY    67  65  93 SW7       29.82F
DANVILLE*      RAIN      61  60  98 SW5       29.78F
RANTOUL*       MOCLDY    66  65  96 SW5       29.82R FOG
MATTOON        PTCLDY    68  64  87 W6        29.83S
PARIS*         MOCLDY    64  62  95 SE3       29.84F
$$

ILZ079-100>102-301000-
SOUTHWEST ILLINOIS

CITY           SKY/WX    TMP DP  RH WIND       PRES   REMARKS
ALTON          CLEAR     67  67 100 CALM      29.87S
BELLEVILLE     CLEAR     68  68 100 CALM      29.85S
CAHOKIA*       CLEAR     69  66  90 CALM      29.86S
SPARTA*        CLEAR     69  67  92 CALM      29.88S
$$

ILZ064>066-069>071-074>076-080>082-084>086-088>090-092>094-301000-
SOUTH-CENTRAL ILLINOIS

CITY           SKY/WX    TMP DP  RH WIND       PRES   REMARKS
CARBONDALE     CLEAR     69  66  90 CALM      29.87F
CAIRO*         CLEAR     72  69  89 CALM      29.86F
EFFINGHAM*     CLEAR     66  63  89 S5        29.86F
MARION         CLEAR     72  66  83 S3        29.88S
MT. VERNON     CLEAR     66  61  82 CALM      29.88R
CENTRALIA*     CLEAR     67  64  90 CALM      29.87S
SALEM*         CLEAR     68  65  90 CALM      29.87R
METROPOLIS*    CLEAR     70  70  99 CALM      29.87S
$$

ILZ067-068-072-073-078-083-087-091-301000-
SOUTHEAST ILLINOIS

CITY           SKY/WX    TMP DP  RH WIND       PRES   REMARKS
LAWRENCEVILLE  PTCLDY    64  63  96 SW5       29.85F
FLORA*         PTCLDY    67  65  92 SW6       29.86S
FAIRFIELD*     PTCLDY    67  66  95 S5        29.85S
HARRISBURG*    MOCLDY    66  66 100 CALM      29.88F
ROBINSON*      CLEAR     65  64  96 SW5       29.85S
CARMI*         CLOUDY    68  63  82 SW6       29.87S
$$

ABBREVIATIONS USED IN REMARKS
   TC - TEMPERATURE IN CELSIUS
  WCI - WIND CHILL INDEX
   HX - HEAT INDEX
  VSB - VISIBILITY
$$



USA.gov is the U.S. government's official web portal to all federal, state and local government web resources and services.